QPF
0.05 0.05 0.07 0.08 0.08 0.08 0.09 0.07 0.08 0.10 0.11 0.11 0.11 0.11 0.09 0.08 0.07 0.05 0.05 0.06 0.08 0.09 0.08 0.07 0.07 0.08 0.09 0.10 0.08 0.09 0.08 0.07 0.07 0.07 0.07 0.07 0.07 0.08 0.09 0.09 0.09 0.12 0.11
0.05 0.06 0.07 0.07 0.06 0.06 0.06 0.05 0.06 0.07 0.07 0.09 0.10 0.11 0.11 0.10 0.10 0.09 0.08 0.09 0.09 0.09 0.09 0.09 0.10 0.10 0.09 0.09 0.09 0.09 0.08 0.06 0.06 0.07 0.07 0.06 0.06 0.05 0.06 0.06 0.09 0.13 0.12
0.04 0.06 0.06 0.04 0.04 0.04 0.05 0.05 0.06 0.05 0.06 0.06 0.07 0.08 0.09 0.08 0.07 0.09 0.09 0.09 0.10 0.08 0.09 0.10 0.11 0.10 0.09 0.09 0.09 0.09 0.09 0.08 0.07 0.06 0.06 0.05 0.05 0.04 0.04 0.04 0.04 0.06 0.07
0.03 0.05 0.06 0.04 0.04 0.04 0.04 0.06 0.07 0.05 0.07 0.08 0.09 0.07 0.06 0.05 0.04 0.07 0.08 0.08 0.08 0.06 0.08 0.08 0.08 0.09 0.12 0.12 0.11 0.11 0.11 0.10 0.09 0.08 0.07 0.06 0.05 0.05 0.04 0.03 0.03 0.03 0.04
0.02 0.04 0.05 0.05 0.05 0.04 0.05 0.05 0.07 0.08 0.09 0.09 0.07 0.08 0.05 0.04 0.05 0.06 0.06 0.07 0.08 0.07 0.06 0.06 0.05 0.06 0.11 0.13 0.12 0.11 0.11 0.10 0.08 0.07 0.07 0.08 0.08 0.07 0.06 0.05 0.03 0.03 0.04
0.03 0.05 0.03 0.04 0.05 0.05 0.07 0.08 0.08 0.08 0.08 0.08 0.06 0.07 0.06 0.03 0.04 0.06 0.07 0.07 0.08 0.06 0.04 0.05 0.05 0.05 0.09 0.10 0.11 0.10 0.09 0.11 0.09 0.08 0.08 0.07 0.07 0.07 0.07 0.06 0.05 0.04 0.04
0.03 0.04 0.03 0.05 0.05 0.06 0.08 0.08 0.07 0.07 0.08 0.07 0.07 0.06 0.05 0.03 0.03 0.04 0.05 0.07 0.07 0.06 0.06 0.07 0.07 0.07 0.07 0.10 0.11 0.10 0.09 0.11 0.10 0.09 0.08 0.08 0.08 0.06 0.06 0.06 0.06 0.06 0.05
0.02 0.02 0.03 0.04 0.05 0.07 0.08 0.07 0.07 0.06 0.06 0.06 0.05 0.05 0.03 0.04 0.05 0.04 0.04 0.05 0.06 0.08 0.08 0.08 0.08 0.08 0.07 0.07 0.09 0.08 0.08 0.08 0.10 0.11 0.10 0.08 0.07 0.06 0.05 0.05 0.05 0.06 0.07
0.03 0.02 0.03 0.03 0.03 0.04 0.06 0.08 0.07 0.07 0.06 0.05 0.04 0.04 0.05 0.04 0.05 0.03 0.03 0.02 0.04 0.08 0.11 0.11 0.10 0.09 0.07 0.07 0.07 0.07 0.07 0.07 0.07 0.09 0.10 0.10 0.09 0.08 0.07 0.06 0.06 0.05 0.05
0.03 0.03 0.03 0.04 0.04 0.05 0.06 0.05 0.05 0.07 0.07 0.05 0.04 0.04 0.04 0.05 0.06 0.05 0.04 0.03 0.04 0.06 0.08 0.09 0.10 0.09 0.06 0.05 0.05 0.04 0.04 0.05 0.05 0.06 0.07 0.09 0.08 0.06 0.06 0.07 0.08 0.08 0.08
0.05 0.05 0.06 0.06 0.05 0.05 0.05 0.06 0.07 0.06 0.06 0.06 0.05 0.03 0.03 0.04 0.05 0.05 0.05 0.04 0.05 0.05 0.05 0.04 0.05 0.07 0.06 0.06 0.05 0.03 0.02 0.02 0.03 0.04 0.05 0.07 0.08 0.07 0.06 0.07 0.08 0.07 0.05
0.05 0.05 0.06 0.06 0.05 0.03 0.04 0.05 0.07 0.06 0.07 0.07 0.07 0.04 0.04 0.04 0.05 0.05 0.04 0.04 0.04 0.04 0.03 0.05 0.06 0.06 0.05 0.05 0.03 0.03 0.02 0.02 0.02 0.02 0.04 0.06 0.07 0.09 0.09 0.09 0.08 0.07 0.05
0.03 0.05 0.05 0.04 0.03 0.03 0.04 0.04 0.04 0.04 0.05 0.06 0.05 0.05 0.05 0.05 0.05 0.04 0.04 0.04 0.03 0.02 0.02 0.03 0.04 0.04 0.03 0.04 0.05 0.04 0.03 0.02 0.02 0.02 0.03 0.05 0.07 0.09 0.11 0.11 0.09 0.08 0.06
0.03 0.05 0.05 0.04 0.04 0.05 0.05 0.05 0.05 0.06 0.06 0.05 0.04 0.05 0.05 0.04 0.05 0.04 0.05 0.04 0.04 0.02 0.03 0.04 0.02 0.04 0.04 0.04 0.04 0.04 0.04 0.04 0.04 0.04 0.04 0.05 0.07 0.07 0.09 0.11 0.11 0.08 0.06
0.04 0.05 0.04 0.04 0.05 0.06 0.07 0.07 0.06 0.06 0.06 0.05 0.04 0.04 0.03 0.03 0.05 0.04 0.04 0.04 0.04 0.04 0.03 0.04 0.03 0.04 0.04 0.03 0.03 0.03 0.04 0.05 0.06 0.07 0.07 0.07 0.05 0.05 0.05 0.08 0.08 0.07 0.06
0.05 0.05 0.06 0.07 0.06 0.06 0.07 0.09 0.07 0.05 0.05 0.05 0.04 0.03 0.03 0.03 0.04 0.03 0.04 0.05 0.04 0.03 0.03 0.03 0.02 0.02 0.03 0.02 0.03 0.03 0.04 0.05 0.06 0.07 0.08 0.06 0.05 0.04 0.04 0.05 0.05 0.05 0.05
0.09 0.07 0.08 0.09 0.07 0.06 0.06 0.07 0.06 0.06 0.06 0.06 0.05 0.04 0.03 0.03 0.03 0.03 0.04 0.05 0.04 0.03 0.03 0.03 0.02 0.03 0.02 0.02 0.02 0.02 0.02 0.03 0.05 0.06 0.06 0.06 0.05 0.05 0.04 0.05 0.06 0.06 0.05
0.15 0.11 0.08 0.06 0.05 0.05 0.06 0.06 0.07 0.08 0.08 0.06 0.05 0.04 0.03 0.03 0.03 0.03 0.04 0.05 0.05 0.05 0.06 0.05 0.03 0.02 0.02 0.01 0.01 0.02 0.02 0.02 0.03 0.04 0.05 0.05 0.05 0.05 0.05 0.04 0.04 0.05 0.06
0.14 0.09 0.05 0.05 0.05 0.05 0.06 0.06 0.06 0.06 0.07 0.06 0.05 0.04 0.03 0.03 0.03 0.03 0.04 0.04 0.04 0.04 0.05 0.05 0.04 0.03 0.02 0.02 0.02 0.02 0.03 0.03 0.02 0.03 0.03 0.04 0.03 0.03 0.03 0.02 0.02 0.04 0.04
0.06 0.04 0.04 0.05 0.06 0.08 0.09 0.06 0.04 0.04 0.05 0.04 0.04 0.04 0.03 0.03 0.03 0.04 0.04 0.04 0.04 0.04 0.04 0.04 0.04 0.03 0.02 0.03 0.03 0.02 0.02 0.03 0.04 0.03 0.03 0.03 0.03 0.03 0.03 0.03 0.02 0.03 0.04
0.03 0.03 0.04 0.05 0.06 0.07 0.07 0.05 0.03 0.03 0.03 0.02 0.02 0.03 0.02 0.02 0.02 0.02 0.02 0.03 0.04 0.04 0.04 0.04 0.04 0.03 0.02 0.04 0.04 0.03 0.03 0.03 0.03 0.03 0.03 0.03 0.03 0.04 0.04 0.05 0.04 0.03 0.03
0.02 0.04 0.04 0.04 0.03 0.03 0.03 0.03 0.02 0.01 0.01 0.02 0.02 0.03 0.03 0.02 0.02 0.01 0.01 0.02 0.03 0.05 0.05 0.05 0.04 0.03 0.03 0.03 0.04 0.04 0.04 0.03 0.03 0.03 0.04 0.04 0.05 0.04 0.04 0.03 0.03 0.02 0.02
0.02 0.02 0.02 0.02 0.02 0.02 0.03 0.03 0.03 0.02 0.02 0.02 0.03 0.03 0.02 0.02 0.02 0.02 0.03 0.02 0.02 0.02 0.03 0.04 0.04 0.04 0.04 0.04 0.04 0.04 0.05 0.05 0.05 0.06 0.06 0.05 0.04 0.03 0.03 0.02 0.02 0.02 0.02
0.01 0.02 0.02 0.02 0.02 0.02 0.03 0.04 0.04 0.04 0.03 0.03 0.02 0.03 0.03 0.03 0.03 0.03 0.03 0.02 0.02 0.02 0.02 0.02 0.04 0.04 0.04 0.05 0.04 0.04 0.04 0.04 0.04 0.04 0.03 0.03 0.03 0.03 0.02 0.02 0.01 0.01 0.01
0.02 0.02 0.02 0.02 0.02 0.02 0.03 0.04 0.05 0.04 0.05 0.04 0.03 0.03 0.04 0.04 0.04 0.04 0.03 0.02 0.03 0.03 0.03 0.03 0.03 0.04 0.04 0.03 0.03 0.03 0.04 0.04 0.05 0.05 0.03 0.03 0.03 0.03 0.02 0.01 0.01 0.01 0.01
0.02 0.02 0.02 0.02 0.02 0.03 0.04 0.05 0.06 0.05 0.03 0.03 0.02 0.02 0.03 0.04 0.05 0.04 0.03 0.03 0.03 0.04 0.05 0.05 0.04 0.04 0.04 0.04 0.04 0.04 0.04 0.05 0.05 0.05 0.04 0.03 0.03 0.03 0.02 0.01 0.01 0.01 0.01
MSLP
1012.01 1012.05 1012.05 1012.01 1011.96 1011.89 1011.82 1011.77 1011.74 1011.72 1011.71 1011.72 1011.75 1011.82 1011.96 1012.18 1012.51 1012.96 1013.49 1014.08 1014.68 1015.26 1015.75 1016.15 1016.44 1016.63 1016.76 1016.84 1016.93 1017.03 1017.18 1017.35 1017.56 1017.78 1018.00 1018.20 1018.39 1018.56 1018.71 1018.85 1018.98 1019.11 1019.24
1012.13 1012.17 1012.19 1012.18 1012.13 1012.06 1011.99 1011.93 1011.89 1011.86 1011.85 1011.86 1011.90 1011.98 1012.12 1012.33 1012.63 1013.03 1013.51 1014.04 1014.58 1015.11 1015.59 1016.00 1016.31 1016.55 1016.72 1016.86 1016.99 1017.12 1017.28 1017.46 1017.65 1017.86 1018.06 1018.24 1018.41 1018.57 1018.72 1018.86 1019.01 1019.16 1019.31
1012.19 1012.24 1012.27 1012.26 1012.23 1012.18 1012.12 1012.06 1012.02 1012.01 1012.01 1012.04 1012.09 1012.18 1012.32 1012.51 1012.76 1013.09 1013.49 1013.94 1014.41 1014.88 1015.33 1015.73 1016.07 1016.35 1016.59 1016.79 1016.98 1017.16 1017.35 1017.54 1017.73 1017.92 1018.10 1018.27 1018.42 1018.57 1018.72 1018.87 1019.03 1019.20 1019.37
1012.22 1012.26 1012.29 1012.30 1012.29 1012.25 1012.21 1012.18 1012.17 1012.17 1012.20 1012.25 1012.33 1012.42 1012.54 1012.70 1012.90 1013.15 1013.45 1013.79 1014.17 1014.57 1014.97 1015.35 1015.71 1016.04 1016.34 1016.62 1016.87 1017.11 1017.33 1017.55 1017.75 1017.94 1018.11 1018.26 1018.41 1018.55 1018.70 1018.86 1019.03 1019.21 1019.39
1012.22 1012.26 1012.30 1012.32 1012.33 1012.32 1012.31 1012.31 1012.32 1012.36 1012.42 1012.49 1012.58 1012.68 1012.79 1012.90 1013.03 1013.19 1013.38 1013.62 1013.90 1014.21 1014.55 1014.91 1015.28 1015.64 1015.99 1016.33 1016.65 1016.95 1017.22 1017.47 1017.69 1017.88 1018.05 1018.21 1018.35 1018.50 1018.65 1018.82 1018.99 1019.18 1019.36
1012.23 1012.27 1012.32 1012.36 1012.39 1012.41 1012.43 1012.46 1012.50 1012.57 1012.65 1012.75 1012.85 1012.94 1013.03 1013.10 1013.16 1013.23 1013.33 1013.45 1013.63 1013.86 1014.13 1014.46 1014.81 1015.19 1015.59 1015.97 1016.34 1016.69 1017.01 1017.30 1017.54 1017.76 1017.95 1018.11 1018.27 1018.42 1018.58 1018.75 1018.92 1019.11 1019.28
1012.24 1012.29 1012.36 1012.42 1012.48 1012.52 1012.57 1012.62 1012.69 1012.78 1012.88 1012.99 1013.09 1013.18 1013.24 1013.27 1013.28 1013.28 1013.29 1013.33 1013.42 1013.57 1013.78 1014.06 1014.40 1014.78 1015.18 1015.60 1016.00 1016.39 1016.75 1017.07 1017.35 1017.59 1017.80 1017.99 1018.16 1018.33 1018.50 1018.67 1018.84 1019.01 1019.17
1012.26 1012.33 1012.41 1012.50 1012.58 1012.64 1012.71 1012.78 1012.86 1012.96 1013.06 1013.17 1013.27 1013.35 1013.40 1013.41 1013.38 1013.34 1013.30 1013.28 1013.31 1013.40 1013.56 1013.79 1014.10 1014.46 1014.86 1015.27 1015.69 1016.09 1016.47 1016.82 1017.13 1017.40 1017.65 1017.86 1018.06 1018.25 1018.42 1018.59 1018.75 1018.91 1019.05
1012.27 1012.36 1012.46 1012.56 1012.65 1012.73 1012.80 1012.87 1012.95 1013.04 1013.14 1013.25 1013.34 1013.42 1013.46 1013.47 1013.44 1013.39 1013.33 1013.30 1013.30 1013.36 1013.49 1013.69 1013.96 1014.29 1014.66 1015.05 1015.45 1015.85 1016.23 1016.58 1016.91 1017.22 1017.49 1017.74 1017.97 1018.17 1018.35 1018.52 1018.66 1018.79 1018.91
1012.24 1012.34 1012.44 1012.54 1012.63 1012.71 1012.78 1012.84 1012.90 1012.98 1013.06 1013.16 1013.25 1013.33 1013.38 1013.41 1013.41 1013.39 1013.37 1013.36 1013.38 1013.45 1013.57 1013.75 1013.99 1014.28 1014.60 1014.95 1015.31 1015.67 1016.03 1016.38 1016.72 1017.04 1017.34 1017.62 1017.87 1018.09 1018.27 1018.43 1018.55 1018.65 1018.73
1012.16 1012.25 1012.34 1012.43 1012.50 1012.56 1012.61 1012.65 1012.69 1012.74 1012.81 1012.89 1012.98 1013.07 1013.15 1013.22 1013.27 1013.32 1013.36 1013.41 1013.48 1013.59 1013.73 1013.92 1014.13 1014.38 1014.65 1014.94 1015.24 1015.55 1015.87 1016.20 1016.53 1016.86 1017.18 1017.48 1017.74 1017.97 1018.15 1018.29 1018.39 1018.46 1018.50
1012.02 1012.08 1012.15 1012.21 1012.26 1012.29 1012.30 1012.32 1012.33 1012.36 1012.40 1012.47 1012.56 1012.66 1012.78 1012.89 1013.01 1013.13 1013.26 1013.40 1013.55 1013.72 1013.90 1014.10 1014.31 1014.53 1014.75 1014.97 1015.21 1015.46 1015.73 1016.02 1016.33 1016.65 1016.98 1017.28 1017.56 1017.79 1017.97 1018.09 1018.16 1018.19 1018.19
1011.82 1011.85 1011.88 1011.91 1011.92 1011.92 1011.91 1011.89 1011.88 1011.88 1011.91 1011.97 1012.05 1012.16 1012.30 1012.46 1012.64 1012.84 1013.06 1013.28 1013.52 1013.76 1014.00 1014.23 1014.44 1014.64 1014.82 1014.99 1015.16 1015.35 1015.56 1015.81 1016.09 1016.39 1016.71 1017.02 1017.30 1017.53 1017.70 1017.81 1017.84 1017.83 1017.80
1011.60 1011.59 1011.58 1011.57 1011.56 1011.53 1011.50 1011.47 1011.44 1011.43 1011.44 1011.48 1011.55 1011.67 1011.81 1012.00 1012.22 1012.47 1012.75 1013.05 1013.36 1013.67 1013.96 1014.23 1014.46 1014.65 1014.81 1014.94 1015.06 1015.20 1015.36 1015.56 1015.80 1016.09 1016.39 1016.69 1016.97 1017.20 1017.36 1017.45 1017.46 1017.42 1017.35
1011.37 1011.33 1011.30 1011.27 1011.24 1011.21 1011.18 1011.15 1011.12 1011.10 1011.10 1011.13 1011.18 1011.28 1011.41 1011.59 1011.82 1012.09 1012.40 1012.74 1013.09 1013.45 1013.79 1014.09 1014.34 1014.55 1014.70 1014.81 1014.91 1015.01 1015.13 1015.29 1015.50 1015.75 1016.04 1016.32 1016.59 1016.81 1016.97 1017.05 1017.05 1016.99 1016.89
1011.14 1011.10 1011.07 1011.04 1011.03 1011.02 1011.01 1011.00 1010.99 1010.98 1010.98 1010.99 1011.02 1011.08 1011.18 1011.33 1011.52 1011.77 1012.07 1012.40 1012.77 1013.14 1013.51 1013.84 1014.12 1014.35 1014.51 1014.64 1014.73 1014.81 1014.91 1015.04 1015.22 1015.44 1015.69 1015.96 1016.21 1016.42 1016.58 1016.65 1016.66 1016.60 1016.50
1010.92 1010.90 1010.89 1010.91 1010.93 1010.97 1011.01 1011.04 1011.07 1011.09 1011.10 1011.10 1011.11 1011.13 1011.18 1011.27 1011.40 1011.59 1011.83 1012.13 1012.47 1012.83 1013.20 1013.55 1013.86 1014.12 1014.31 1014.46 1014.57 1014.65 1014.74 1014.86 1015.00 1015.19 1015.41 1015.65 1015.88 1016.08 1016.23 1016.32 1016.34 1016.30 1016.22
1010.68 1010.70 1010.75 1010.82 1010.91 1011.02 1011.12 1011.22 1011.30 1011.36 1011.39 1011.40 1011.40 1011.39 1011.38 1011.40 1011.46 1011.57 1011.75 1011.98 1012.27 1012.60 1012.96 1013.31 1013.64 1013.93 1014.17 1014.35 1014.48 1014.59 1014.68 1014.78 1014.90 1015.05 1015.23 1015.43 1015.63 1015.81 1015.96 1016.07 1016.12 1016.12 1016.08
1010.38 1010.47 1010.59 1010.73 1010.90 1011.08 1011.25 1011.42 1011.56 1011.67 1011.74 1011.78 1011.77 1011.75 1011.71 1011.69 1011.68 1011.73 1011.83 1011.99 1012.22 1012.51 1012.84 1013.18 1013.53 1013.84 1014.12 1014.34 1014.51 1014.63 1014.73 1014.82 1014.91 1015.02 1015.15 1015.30 1015.46 1015.63 1015.78 1015.90 1015.99 1016.04 1016.06
1010.00 1010.16 1010.34 1010.56 1010.79 1011.04 1011.28 1011.51 1011.71 1011.87 1012.00 1012.07 1012.10 1012.09 1012.06 1012.02 1011.99 1011.99 1012.04 1012.15 1012.33 1012.57 1012.87 1013.20 1013.54 1013.88 1014.18 1014.43 1014.63 1014.78 1014.88 1014.95 1015.01 1015.07 1015.14 1015.24 1015.36 1015.50 1015.64 1015.78 1015.91 1016.02 1016.11
1009.52 1009.74 1009.99 1010.25 1010.54 1010.83 1011.11 1011.38 1011.63 1011.84 1012.02 1012.15 1012.24 1012.29 1012.30 1012.30 1012.29 1012.29 1012.33 1012.41 1012.55 1012.76 1013.02 1013.33 1013.66 1014.00 1014.31 1014.58 1014.80 1014.96 1015.06 1015.12 1015.14 1015.15 1015.17 1015.22 1015.29 1015.39 1015.53 1015.68 1015.85 1016.01 1016.17
1008.98 1009.24 1009.51 1009.81 1010.11 1010.41 1010.70 1010.99 1011.26 1011.51 1011.73 1011.94 1012.11 1012.24 1012.35 1012.43 1012.48 1012.54 1012.60 1012.69 1012.83 1013.01 1013.24 1013.52 1013.83 1014.15 1014.46 1014.73 1014.95 1015.11 1015.20 1015.24 1015.23 1015.20 1015.18 1015.17 1015.20 1015.27 1015.40 1015.56 1015.75 1015.96 1016.18
1008.42 1008.69 1008.97 1009.26 1009.54 1009.82 1010.09 1010.36 1010.63 1010.90 1011.17 1011.43 1011.70 1011.94 1012.17 1012.36 1012.53 1012.67 1012.80 1012.92 1013.06 1013.24 1013.44 1013.68 1013.96 1014.24 1014.52 1014.78 1014.99 1015.14 1015.22 1015.25 1015.22 1015.17 1015.11 1015.07 1015.07 1015.12 1015.22 1015.39 1015.60 1015.84 1016.09
1007.90 1008.17 1008.43 1008.69 1008.94 1009.17 1009.39 1009.61 1009.85 1010.11 1010.41 1010.74 1011.08 1011.44 1011.79 1012.11 1012.40 1012.65 1012.86 1013.04 1013.20 1013.36 1013.54 1013.74 1013.96 1014.20 1014.44 1014.66 1014.85 1014.99 1015.07 1015.09 1015.07 1015.01 1014.94 1014.89 1014.88 1014.91 1015.01 1015.18 1015.39 1015.64 1015.91
1007.49 1007.74 1007.99 1008.22 1008.41 1008.58 1008.74 1008.90 1009.09 1009.33 1009.63 1009.99 1010.41 1010.86 1011.31 1011.75 1012.15 1012.50 1012.78 1013.01 1013.19 1013.34 1013.48 1013.63 1013.79 1013.97 1014.16 1014.34 1014.51 1014.64 1014.73 1014.77 1014.77 1014.73 1014.68 1014.65 1014.64 1014.69 1014.79 1014.95 1015.15 1015.40 1015.66
1007.21 1007.47 1007.70 1007.90 1008.06 1008.17 1008.27 1008.37 1008.51 1008.72 1009.00 1009.37 1009.81 1010.31 1010.84 1011.36 1011.84 1012.25 1012.59 1012.84 1013.02 1013.15 1013.25 1013.34 1013.44 1013.56 1013.70 1013.84 1013.99 1014.13 1014.23 1014.31 1014.35 1014.36 1014.36 1014.36 1014.38 1014.45 1014.56 1014.71 1014.91 1015.13 1015.37
Thickness
5782 5781 5779 5777 5778 5777 5776 5773 5773 5771 5770 5770 5770 5770 5769 5769 5768 5768 5764 5759 5757 5756 5754 5753 5753 5752 5751 5750 5749 5748 5748 5747 5746 5745 5744 5743 5743 5742 5742 5741 5740 5739 5738
5782 5781 5778 5777 5777 5777 5776 5775 5774 5771 5771 5771 5770 5769 5769 5768 5766 5765 5764 5760 5757 5755 5754 5753 5751 5750 5749 5748 5748 5747 5746 5745 5744 5743 5743 5741 5741 5740 5740 5739 5738 5738 5737
5780 5779 5779 5778 5778 5777 5775 5774 5773 5773 5771 5771 5769 5769 5768 5767 5766 5763 5763 5762 5759 5756 5753 5752 5750 5749 5748 5747 5746 5745 5745 5744 5743 5742 5741 5740 5739 5738 5738 5736 5736 5735 5735
5779 5778 5778 5778 5777 5777 5776 5773 5773 5772 5770 5769 5768 5768 5768 5766 5764 5763 5763 5761 5760 5759 5754 5750 5748 5747 5746 5745 5744 5743 5743 5742 5741 5740 5739 5738 5737 5736 5735 5735 5734 5733 5733
5779 5778 5778 5776 5775 5776 5775 5774 5772 5769 5766 5765 5766 5765 5766 5765 5764 5764 5763 5761 5759 5757 5754 5749 5747 5745 5744 5743 5742 5741 5741 5740 5739 5738 5737 5736 5735 5734 5733 5732 5732 5731 5731
5779 5778 5778 5775 5776 5775 5772 5770 5767 5765 5764 5763 5766 5764 5763 5764 5763 5762 5762 5760 5757 5755 5753 5750 5747 5744 5742 5741 5740 5739 5739 5738 5737 5736 5735 5734 5733 5731 5731 5730 5729 5729 5729
5778 5776 5777 5774 5773 5772 5769 5768 5766 5764 5763 5763 5761 5759 5761 5762 5761 5759 5759 5758 5755 5753 5750 5748 5746 5744 5742 5739 5738 5737 5736 5735 5734 5733 5732 5732 5731 5730 5728 5728 5727 5727 5727
5777 5777 5773 5773 5771 5768 5765 5764 5762 5761 5761 5761 5757 5754 5752 5753 5754 5758 5755 5753 5752 5751 5749 5747 5744 5741 5740 5740 5738 5735 5733 5732 5731 5730 5729 5729 5728 5728 5727 5726 5725 5725 5725
5776 5774 5773 5772 5769 5768 5765 5762 5760 5757 5756 5757 5758 5753 5748 5745 5747 5750 5750 5749 5747 5746 5746 5744 5742 5739 5738 5737 5736 5732 5731 5729 5728 5727 5727 5726 5726 5725 5725 5724 5723 5722 5722
5776 5774 5772 5769 5767 5767 5763 5762 5761 5757 5754 5753 5754 5752 5751 5749 5742 5740 5744 5746 5744 5742 5742 5742 5740 5737 5735 5734 5731 5729 5727 5726 5725 5724 5724 5724 5723 5723 5722 5722 5721 5721 5720
5775 5773 5770 5768 5765 5764 5761 5759 5756 5755 5755 5752 5751 5749 5747 5745 5744 5738 5735 5737 5739 5740 5739 5737 5736 5735 5733 5730 5729 5727 5724 5722 5721 5721 5721 5720 5720 5720 5719 5719 5718 5718 5718
5775 5772 5769 5766 5764 5762 5759 5756 5754 5753 5751 5749 5748 5747 5744 5741 5739 5737 5733 5731 5732 5734 5735 5733 5732 5731 5730 5728 5726 5723 5721 5719 5718 5717 5717 5717 5717 5716 5716 5716 5716 5715 5715
5774 5770 5768 5764 5762 5759 5756 5754 5752 5750 5748 5745 5743 5743 5743 5740 5739 5737 5733 5730 5728 5729 5729 5729 5729 5727 5726 5724 5722 5718 5717 5716 5715 5714 5713 5713 5713 5712 5712 5712 5712 5711 5711
5773 5769 5765 5762 5759 5756 5755 5752 5751 5748 5745 5742 5741 5738 5737 5738 5737 5735 5731 5726 5722 5724 5723 5723 5725 5723 5721 5719 5717 5714 5714 5713 5711 5710 5709 5709 5709 5708 5708 5708 5707 5707 5706
5770 5766 5763 5760 5757 5754 5751 5749 5746 5743 5741 5739 5738 5735 5734 5734 5733 5731 5729 5725 5719 5714 5716 5717 5718 5719 5716 5714 5712 5711 5711 5709 5707 5706 5705 5704 5704 5704 5704 5703 5702 5702 5702
5765 5762 5760 5756 5753 5750 5748 5745 5742 5739 5736 5734 5731 5729 5727 5729 5728 5726 5725 5722 5720 5715 5712 5716 5714 5714 5712 5711 5707 5707 5706 5704 5704 5703 5702 5701 5700 5699 5698 5698 5698 5697 5696
5761 5757 5754 5751 5748 5745 5742 5740 5738 5735 5732 5730 5727 5725 5722 5720 5720 5720 5719 5717 5715 5713 5708 5709 5710 5708 5704 5704 5704 5703 5703 5702 5702 5700 5698 5697 5696 5694 5693 5693 5692 5691 5691
5757 5753 5750 5747 5743 5740 5738 5736 5733 5730 5727 5725 5723 5720 5717 5716 5713 5713 5711 5710 5709 5708 5704 5700 5702 5702 5699 5699 5699 5698 5701 5701 5700 5696 5694 5692 5691 5690 5688 5688 5687 5686 5685
5753 5750 5746 5742 5739 5735 5733 5731 5728 5725 5723 5721 5719 5716 5713 5710 5708 5707 5705 5704 5704 5704 5701 5698 5697 5697 5696 5696 5694 5694 5695 5694 5695 5694 5690 5688 5687 5685 5684 5683 5682 5681 5680
5749 5745 5742 5738 5734 5731 5728 5726 5723 5720 5718 5717 5714 5711 5709 5706 5703 5701 5700 5697 5697 5696 5695 5694 5693 5692 5691 5690 5688 5688 5689 5689 5689 5690 5688 5686 5683 5681 5680 5678 5677 5676 5675
5745 5740 5736 5733 5730 5727 5725 5721 5718 5717 5714 5711 5709 5706 5705 5701 5698 5695 5696 5693 5691 5690 5689 5688 5687 5687 5686 5682 5682 5683 5682 5682 5683 5683 5682 5681 5680 5679 5678 5674 5672 5671 5670
5738 5734 5731 5728 5726 5725 5718 5714 5711 5711 5709 5706 5703 5702 5700 5697 5693 5689 5686 5685 5684 5683 5683 5681 5682 5679 5677 5677 5676 5676 5676 5675 5674 5677 5674 5674 5675 5675 5675 5673 5669 5667 5665
5731 5728 5725 5723 5719 5716 5711 5707 5703 5704 5703 5701 5698 5696 5696 5695 5690 5687 5683 5680 5678 5676 5674 5675 5675 5673 5672 5672 5670 5669 5667 5667 5666 5669 5666 5667 5669 5668 5668 5668 5665 5662 5660
5725 5722 5718 5716 5713 5709 5704 5700 5697 5697 5697 5695 5693 5691 5689 5687 5686 5681 5680 5678 5676 5674 5672 5670 5669 5668 5668 5666 5664 5663 5661 5660 5660 5661 5661 5660 5663 5662 5663 5661 5659 5657 5655
5718 5715 5713 5710 5707 5703 5698 5694 5690 5692 5691 5689 5687 5685 5683 5681 5676 5673 5673 5672 5670 5669 5666 5663 5661 5660 5658 5657 5657 5657 5656 5655 5655 5657 5656 5654 5655 5655 5655 5655 5654 5652 5650
5711 5709 5707 5704 5700 5697 5692 5688 5683 5686 5685 5684 5681 5680 5675 5673 5668 5665 5666 5665 5663 5663 5662 5660 5656 5654 5654 5652 5650 5650 5651 5650 5649 5649 5650 5647 5648 5648 5647 5650 5650 5648 5646